Roscoe, TX

4:18 AM CDT on August 24, 2016 (GMT -0500)
Avenger

Weather History for KSWW - April, 2014

Change the Weather History Date:

Thursday, April 10, 2014

  Actual Average Record
Temperature  
Mean Temperature 78 °F -  
Max Temperature 93 °F 76 °F 97 °F (1963)
Min Temperature 64 °F 49 °F 27 °F (1973)
Cooling Degree Days 14    
Growing Degree Days 28 (Base 50)    
Moisture  
Dew Point 26 °F    
Average Humidity 18    
Maximum Humidity 38    
Minimum Humidity 6    
Precipitation  
Precipitation 0.00 in - - ()
Sea Level Pressure  
Sea Level Pressure 29.95 in    
Wind  
Wind Speed 20 mph (SSW)    
Max Wind Speed 28 mph    
Max Gust Speed 33 mph    
Visibility 10 miles    
Events      
Averages and records for this station are not official NWS values.
T = Trace of Precipitation, MM = Missing Value Source: NWS Daily Summary

Daily Weather History Graph

Daily Weather History Graph

Search for Another Location

Airport or City:

Trip Planner

Search our weather history database for the weather conditions in past years. The results will help you decide how hot, cold, wet, or windy it might be!

Date:

Astronomy

Apr. 10, 2014 Rise Set
Actual Time 7:18 AM CDT 8:08 PM CDT
Civil Twilight 6:53 AM CDT 8:33 PM CDT
Nautical Twilight 6:24 AM CDT 9:02 PM CDT
Astronomical Twilight 5:53 AM CDT 9:33 PM CDT
Moon 4:07 PM CDT (4/10) 4:27 AM CDT (4/10)
Length of Visible Light 13h 39m
Length of Day
12h 49m
Waxing Gibbous, 80% of the Moon is Illuminated
Apr 10
Waxing Gibbous
Apr 15
Full
Apr 22
Last Quarter
Apr 29
New
May 6
First Quarter

Hourly Weather History & Observations

Time (CDT) Temp. Dew Point Humidity Pressure Visibility Wind Dir Wind Speed Gust Speed Precip Events Conditions
12:15 AM 73.0 °F 27.3 °F 18% 30.02 in 10.0 mi South 21.9 mph 27.6 mph N/A   Clear
12:35 AM 72.7 °F 27.9 °F 19% 30.02 in 10.0 mi South 21.9 mph 29.9 mph N/A   Clear
12:55 AM 72.7 °F 28.4 °F 19% 30.02 in 10.0 mi South 23.0 mph 31.1 mph N/A   Clear
1:15 AM 72.1 °F 28.8 °F 20% 30.02 in 10.0 mi South 24.2 mph 31.1 mph N/A   Clear
1:35 AM 72.0 °F 28.8 °F 20% 30.01 in 10.0 mi South 23.0 mph 28.8 mph N/A   Clear
1:55 AM 71.2 °F 28.9 °F 21% 30.01 in 10.0 mi South 24.2 mph 31.1 mph N/A   Clear
2:15 AM 71.1 °F 29.1 °F 21% 30.00 in 10.0 mi South 23.0 mph 29.9 mph N/A   Clear
2:35 AM 70.5 °F 29.3 °F 22% 30.00 in 10.0 mi South 23.0 mph 28.8 mph N/A   Clear
2:55 AM 70.3 °F 30.0 °F 22% 29.99 in 10.0 mi South 24.2 mph 29.9 mph N/A   Clear
3:15 AM 69.6 °F 30.2 °F 23% 29.98 in 10.0 mi South 23.0 mph 26.5 mph N/A   Clear
3:35 AM 69.1 °F 30.7 °F 24% 29.98 in 10.0 mi South 21.9 mph 27.6 mph N/A   Clear
3:55 AM 68.2 °F 31.1 °F 25% 29.98 in 10.0 mi South 20.7 mph 27.6 mph N/A   Clear
4:15 AM 68.0 °F 31.6 °F 26% 29.98 in 10.0 mi South 21.9 mph 28.8 mph N/A   Clear
4:35 AM 68.0 °F 32.0 °F 26% 29.97 in 10.0 mi South 23.0 mph 29.9 mph N/A   Clear
4:55 AM 67.6 °F 32.2 °F 27% 29.97 in 10.0 mi South 27.6 mph 33.4 mph N/A   Clear
5:15 AM 67.6 °F 32.9 °F 28% 29.97 in 10.0 mi South 26.5 mph 32.2 mph N/A   Clear
5:35 AM 67.1 °F 33.4 °F 29% 29.97 in 10.0 mi South 23.0 mph 29.9 mph N/A   Clear
5:55 AM 66.7 °F 34.0 °F 30% 29.97 in 10.0 mi South 23.0 mph 31.1 mph N/A   Clear
6:15 AM 66.2 °F 34.9 °F 31% 29.97 in 10.0 mi South 20.7 mph - N/A   Clear
6:35 AM 65.7 °F 35.2 °F 32% 29.97 in 10.0 mi South 23.0 mph 27.6 mph N/A   Clear
6:55 AM 65.1 °F 35.8 °F 34% 29.97 in 10.0 mi South 18.4 mph - N/A   Clear
7:15 AM 64.4 °F 37.2 °F 37% 29.97 in 10.0 mi South 20.7 mph - N/A   Clear
7:35 AM 64.4 °F 37.9 °F 38% 29.97 in 10.0 mi South 19.6 mph - N/A   Clear
7:55 AM 64.6 °F 38.7 °F 38% 29.97 in 10.0 mi South 19.6 mph 23.0 mph N/A   Clear
8:15 AM 65.5 °F 39.4 °F 38% 29.98 in 10.0 mi South 20.7 mph - N/A   Clear
8:35 AM 67.1 °F 39.7 °F 37% 29.97 in 10.0 mi South 21.9 mph 27.6 mph N/A   Clear
8:55 AM 68.4 °F 39.6 °F 35% 29.98 in 10.0 mi South 20.7 mph - N/A   Clear
9:15 AM 70.7 °F 39.2 °F 32% 29.97 in 10.0 mi South 21.9 mph 26.5 mph N/A   Clear
9:35 AM 73.6 °F 38.7 °F 28% 29.98 in 10.0 mi South 19.6 mph 25.3 mph N/A   Clear
9:55 AM 74.7 °F 37.9 °F 26% 29.98 in 10.0 mi SSW 24.2 mph 28.8 mph N/A   Clear
10:15 AM 75.9 °F 37.6 °F 25% 29.98 in 10.0 mi South 23.0 mph - N/A   Clear
10:35 AM 77.7 °F 35.2 °F 21% 29.99 in 10.0 mi SSW 21.9 mph 29.9 mph N/A   Clear
10:55 AM 77.9 °F 34.3 °F 21% 29.98 in 10.0 mi SSW 25.3 mph 29.9 mph N/A   Clear
11:15 AM 79.0 °F 34.2 °F 20% 29.99 in 10.0 mi SSW 23.0 mph 28.8 mph N/A   Clear
11:35 AM 81.1 °F 32.0 °F 17% 29.98 in 10.0 mi SSW 23.0 mph 31.1 mph N/A   Clear
11:55 AM 81.3 °F 32.2 °F 17% 29.98 in 10.0 mi SSW 19.6 mph 26.5 mph N/A   Clear
12:15 PM 83.3 °F 31.6 °F 15% 29.98 in 10.0 mi SSW 21.9 mph 25.3 mph N/A   Clear
12:35 PM 84.0 °F 30.7 °F 15% 29.97 in 10.0 mi SW 20.7 mph 27.6 mph N/A   Clear
12:55 PM 84.9 °F 30.6 °F 14% 29.97 in 10.0 mi SW 16.1 mph 28.8 mph N/A   Clear
1:15 PM 85.6 °F 28.9 °F 13% 29.96 in 10.0 mi WSW 20.7 mph 25.3 mph N/A   Clear
1:35 PM 88.0 °F 29.1 °F 12% 29.95 in 10.0 mi SW 19.6 mph 25.3 mph N/A   Clear
1:55 PM 88.9 °F 27.0 °F 11% 29.95 in 10.0 mi WSW 20.7 mph 27.6 mph N/A   Clear
2:15 PM 88.7 °F 26.1 °F 10% 29.94 in 10.0 mi SW 18.4 mph 24.2 mph N/A   Clear
2:35 PM 89.2 °F 25.0 °F 10% 29.93 in 10.0 mi SW 15.0 mph 25.3 mph N/A   Clear
2:55 PM 90.5 °F 23.7 °F 9% 29.92 in 10.0 mi SW 15.0 mph 23.0 mph N/A   Clear
3:15 PM 91.0 °F 23.4 °F 9% 29.92 in 10.0 mi WSW 18.4 mph - N/A   Clear
3:35 PM 90.9 °F 20.8 °F 8% 29.91 in 10.0 mi West 15.0 mph 20.7 mph N/A   Clear
3:55 PM 90.5 °F 20.3 °F 8% 29.90 in 10.0 mi WSW 13.8 mph - N/A   Clear
4:15 PM 91.4 °F 18.0 °F 7% 29.89 in 10.0 mi WSW 15.0 mph 18.4 mph N/A   Clear
4:35 PM 92.5 °F 17.2 °F 6% 29.88 in 10.0 mi SW 12.7 mph 18.4 mph N/A   Clear
4:55 PM 91.6 °F 18.1 °F 7% 29.88 in 10.0 mi West 12.7 mph 16.1 mph N/A   Clear
5:15 PM 91.2 °F 16.3 °F 6% 29.87 in 10.0 mi West 9.2 mph 19.6 mph N/A   Clear
5:35 PM 91.4 °F 17.1 °F 7% 29.87 in 10.0 mi West 8.1 mph - N/A   Clear
5:55 PM 92.3 °F 17.2 °F 6% 29.86 in 10.0 mi WSW 9.2 mph - N/A   Clear
6:15 PM 93.0 °F 16.2 °F 6% 29.86 in 10.0 mi WSW 15.0 mph 24.2 mph N/A   Clear
6:35 PM 92.7 °F 14.2 °F 6% 29.86 in 10.0 mi SW 13.8 mph 21.9 mph N/A   Clear
6:55 PM 91.9 °F 14.5 °F 6% 29.86 in 10.0 mi SW 16.1 mph 21.9 mph N/A   Clear
7:15 PM 90.0 °F 13.1 °F 6% 29.86 in 10.0 mi SW 15.0 mph - N/A   Clear
7:35 PM 88.9 °F 13.6 °F 6% 29.87 in 10.0 mi SSW 11.5 mph - N/A   Clear
7:55 PM 86.5 °F 15.4 °F 7% 29.87 in 10.0 mi SW 8.1 mph - N/A   Clear
8:15 PM 85.1 °F 14.7 °F 7% 29.88 in 10.0 mi WSW 8.1 mph - N/A   Clear
8:35 PM 82.6 °F 12.6 °F 7% 29.88 in 10.0 mi WSW 6.9 mph - N/A   Clear
8:55 PM 80.4 °F 9.3 °F 7% 29.89 in 10.0 mi WSW 9.2 mph - N/A   Clear
9:15 PM 79.0 °F 8.1 °F 7% 29.90 in 10.0 mi WSW 9.2 mph - N/A   Clear
9:35 PM 79.3 °F 7.0 °F 6% 29.91 in 10.0 mi SW 8.1 mph - N/A   Clear
9:55 PM 78.3 °F 7.5 °F 7% 29.91 in 10.0 mi SSW 9.2 mph - N/A   Clear
10:15 PM 76.6 °F 7.7 °F 7% 29.93 in 10.0 mi WSW 6.9 mph - N/A   Clear
10:35 PM 71.2 °F 9.3 °F 9% 29.95 in 10.0 mi WNW 4.6 mph - N/A   Clear
10:55 PM 73.6 °F 13.5 °F 10% 29.96 in 10.0 mi North 5.8 mph - N/A   Clear
11:15 PM 72.5 °F 16.7 °F 12% 29.97 in 10.0 mi North 5.8 mph - N/A   Clear
11:35 PM 71.4 °F 27.9 °F 20% 29.98 in 5.0 mi ENE 5.8 mph - N/A   Clear
11:55 PM 70.2 °F 25.7 °F 19% 29.98 in 10.0 mi East 5.8 mph - N/A   Clear